Regional Weather Roundup
Issued by NWS

Home | Current Version | Previous Version | Text Only | Print | Product List | Glossary Off
Versions: 1 2 3 4 5 6 7 8 9 10 11 12 13 14 15 16 17 18 19 20 21 22 23 24 25 26 27 28 29 30 31 32 33 34 35 36 37 38 39 40 41 42 43 44 45 46 47 48 49 50

000
ASUS43 KBIS 210731
RWRND
NORTH DAKOTA REGIONAL WEATHER ROUNDUP
NATIONAL WEATHER SERVICE EASTERN NORTH DAKOTA/GRAND FORKS ND
200 AM CDT MON MAY 21 2018

  NOTE: "FAIR" INDICATES FEW OR NO CLOUDS BELOW 12,000 FEET WITH NO
  SIGNIFICANT WEATHER AND/OR OBSTRUCTIONS TO VISIBILITY.

NDZ001>003-009>011-017-210800-
...NORTHWEST NORTH DAKOTA...

CITY           SKY/WX    TMP DP  RH WIND       PRES   REMARKS
WILLISTON      FAIR      54  37  52 S9        30.02F
MINOT          FAIR      49  35  58 SE7       30.07S
MINOT AFB      FAIR      48  35  60 S8        30.06S
$$

NDZ018>021-031>035-040>046-210800-
...SOUTHWEST NORTH DAKOTA...

CITY           SKY/WX    TMP DP  RH WIND       PRES   REMARKS
BISMARCK       FAIR      45  39  79 E3        30.10S
DICKINSON      FAIR      41  35  79 SE12      30.03F
GARRISON         N/A     45  36  70 SE3       30.07F
HETTINGER      FAIR      43  35  73 SE6       30.06F
$$

NDZ004>008-012>016-024-026-027-054-210800-
...NORTHEAST NORTH DAKOTA...

CITY           SKY/WX    TMP DP  RH WIND       PRES   REMARKS
GRAND FORKS    FAIR      46  38  73 S5        30.10S
GRAND FORKS AF FAIR      49  34  57 SW3       30.10F
DEVILS LAKE    FAIR      51  38  60 S3        30.11F
$$

NDZ022-023-025-028>030-036>039-047>053-210800-
...SOUTHEAST NORTH DAKOTA...

CITY           SKY/WX    TMP DP  RH WIND       PRES   REMARKS
JAMESTOWN      FAIR      51  38  60 SE3       30.09F
FARGO          FAIR      49  39  68 SE5       30.11S
WAHPETON       FAIR      50  32  50 E6        30.11F
$$




USA.gov is the U.S. government's official web portal to all federal, state and local government web resources and services.